Location: Ferma
(41.9500°N, 44.5167°E)
Time: 03:52:46
(UTC+00:00)

NOSS 2-3 (D) - Pass Details

Date: 03 June 2022
Orbit: 536 x 1674 km, 63.3° (Epoch: 02 June)

Event Time Altitude Azimuth Distance (km) Brightness Sun altitude
Rises 20:13:40 0° 311° (NW) 3,716 8.3 -24.8°
Reaches altitude 10° 20:16:29 10° 299° (WNW) 2,938 7.5 -24.9°
Maximum altitude 20:22:07 26° 246° (WSW) 2,292 6.3 -25.1°
Enters shadow 20:24:05 23° 226° (SW) 2,489 6.3 -25.1°
